Regional Weather Roundup
Issued by NWS

Home | Current Version | Previous Version | Graphics & Text | Print | Product List | Glossary On
Versions: 1 2 3 4 5 6 7 8 9 10 11 12 13 14 15 16 17 18 19 20 21 22 23 24 25 26 27 28 29 30 31 32 33 34 35 36 37 38 39 40 41 42 43 44 45 46 47 48 49 50
000
ASUS43 KLMK 280502
RWRKY
KENTUCKY REGIONAL WEATHER ROUNDUP
NATIONAL WEATHER SERVICE LOUISVILLE KY
1200 AM EST WED JAN 28 2015

NOTE "FAIR" INDICATES FEW OR NO CLOUDS BELOW 12,000 FEET
WITH NO SIGNIFICANT WEATHER AND/OR OBSTRUCTIONS TO VISIBILITY.

KYZ001>023-026-027-061>063-070>075-280600-
WESTERN AND SOUTH CENTRAL KENTUCKY

CITY           SKY/WX    TMP DP  RH WIND       PRES   REMARKS
PADUCAH        CLEAR     31  27  85 E3        30.25R
HENDERSON      CLOUDY    34  27  75 NE5       30.26S WCI  30
OWENSBORO      CLOUDY    33  30  89 NE6       30.27R WCI  27
HOPKINSVILLE   CLOUDY    33  29  85 N6        30.25R WCI  28
BOWLING GREEN  CLOUDY    33  28  81 N5        30.25R WCI  29
GLASGOW        NOT AVBL
$$

KYZ024-025-028>034-038-045-046-053-280600-
NORTH CENTRAL KENTUCKY

CITY           SKY/WX    TMP DP  RH WIND       PRES   REMARKS
LOUISVILLE/SDF CLEAR     27  13  55 VRB3      30.26R
LOUISVILLE/LOU CLEAR     26  13  57 NE5       30.26R WCI  20
FORT KNOX      PTCLDY    26  14  60 CALM      30.23R
$$

KYZ035>037-039>044-047>052-055>060-089>105-280600-
NORTHEAST KENTUCKY

CITY           SKY/WX    TMP DP  RH WIND       PRES   REMARKS
LEXINGTON      CLEAR     19  11  70 NE5       30.23S WCI  12
COVINGTON      CLEAR     20  12  71 CALM      30.24S
FRANKFORT      CLEAR     22  11  62 NE5       30.24R WCI  16
$$

KYZ054-064>069-076>088-106>120-280600-
SOUTHEAST KENTUCKY

CITY           SKY/WX    TMP DP  RH WIND       PRES   REMARKS
JACKSON        CLEAR     20  11  68 CALM      30.19R
LONDON         CLEAR     25  12  58 N6        30.20R WCI  18
SOMERSET       NOT AVBL
MIDDLESBORO    MOCLDY    27  17  65 N7        30.20R WCI  19
MONTICELLO     PTCLDY    26  20  78 CALM      30.25R
$$




USA.gov is the U.S. government's official web portal to all federal, state and local government web resources and services.